Regional Weather Roundup
Issued by NWS Austin/San Antonio, TX

Home | Current Version | Previous Version | Text Only | Print | Product List | Glossary On
Versions: 1 2 3 4 5 6 7 8 9 10 11 12 13 14 15 16 17 18 19 20 21 22 23 24 25 26 27 28 29 30 31 32 33 34 35 36 37 38 39 40 41 42 43 44 45 46 47 48 49 50
939
ASUS44 KEWX 281102
RWREWX
SOUTH TEXAS REGIONAL WEATHER ROUNDUP
NATIONAL WEATHER SERVICE AUSTIN/SAN ANTONIO TX
600 AM CDT FRI APR 28 2017

NOTE: "FAIR" INDICATED FEW OR NO CLOUDS BELOW 12,000 FEET WITH NO
SIGNIFICANT WEATHER AND/OR OBSTRUCTIONS TO VISIBILITY.

* - THESE STATIONS ARE NOT NWS OR FAA STATIONS...AND ARE NOT SUBJECT
    TO NWS AND FAA QUALITY CONTROL.

TXZ171-172-183>190-281200-
TEXAS HILL COUNTRY AND EDWARDS PLATEAU

CITY           SKY/WX    TMP DP  RH WIND       PRES   REMARKS
JUNCTION       CLOUDY    69  64  84 VRB5      29.61R
*LLANO         CLEAR     64  63  94 CALM      29.62R
BURNET         CLOUDY    68  62  81 S8        29.61R
*HORSESHOE BAY MOCLDY    69  64  84 S6        29.59S
*KERRVILLE     CLOUDY    67  65  94 S8        29.62S
*FREDERICKSBRG CLOUDY    67  62  82 S8G17     29.61S
*ROCKSPRINGS   CLOUDY    66  64  94 S8        29.67S FOG
*BOERNE STAGE  CLOUDY    68  64  88 S6        29.62S
*CASTROVILLE   CLOUDY    71  66  84 CALM      29.60F
HONDO          LGT RAIN  72  67  84 SE7       29.60R
*UVALDE        CLOUDY    68  66  93 CALM      29.61R FOG
DEL RIO        MOCLDY    72  68  87 E17       29.55F
LAUGHLIN AFB   CLOUDY    72  69  90 SE13      29.58S
CARRIZO SPRGS  CLOUDY    72  70  94 CALM      29.56R
*EAGLE PASS    NOT AVBL
$$

TXZ173-191>194-202-209-217>225-228-281200-
CENTRAL AND SOUTH CENTRAL TEXAS

CITY           SKY/WX    TMP DP  RH WIND       PRES   REMARKS
GEORGETOWN     CLOUDY    72  63  73 S13       29.58S
AUSTIN/BERGSTM CLOUDY    73  68  84 S9        29.58S
AUSTIN/MABRY   CLOUDY    72  66  81 VRB7      29.59S
*AUSTIN/EXEC   CLOUDY    72  68  88 S10G16    29.59S
*LAGO VISTA    CLOUDY    71  65  83 S13G22    29.60S
SAN MARCOS     MOCLDY    70  66  88 S10       29.60S
NEW BRAUNFELS  PTCLDY    69  66  90 S7        29.58F
RANDOLPH AFB   CLOUDY    67  67 100 SE5       29.59F
PT SAN ANTONIO CLOUDY    71  67  85 E5        29.58S
SAN ANTONIO    MOCLDY    70  66  87 SE8       29.60S
STINSON FIELD  CLOUDY    72  67  84 SE7       29.57S
*LA GRANGE     CLOUDY    73  71  92 S6        29.58S
*GIDDINGS      CLOUDY    71  67  88 S8        29.60S
*GONZALES      CLOUDY    73  72  96 S6        29.60R
$$

TXZ163>164-176>182-195>201-210>213-226-227-235-281200-
SOUTHEAST TEXAS

CITY           SKY/WX    TMP DP  RH WIND       PRES   REMARKS
COLLEGE STN    CLOUDY    72  69  90 S12       29.60S
*BRYAN         CLOUDY    71  70  98 SE8       29.62S
*CALDWELL      NOT AVBL
*CROCKETT      MOCLDY    70  66  88 S6        29.66R
*BRENHAM       CLOUDY    72  70  94 SE5       29.62R
HUNTSVILLE     CLOUDY    73  68  84 S6        29.62R
CONROE         CLOUDY    71  69  93 SE6       29.63S
HOUSTON BUSH   CLOUDY    77  70  79 S14G21    29.63R
HOUSTON HOBBY  CLOUDY    75  72  90 S10       29.63R
*HOUSTON SW AP CLOUDY    74  71  91 S5        29.64R FOG
PEARLAND       CLOUDY    78  73  84 S8        29.65R
HOUSTON HOOKS  CLOUDY    76  70  82 S7        29.62S
ELLINGTON FLD  CLOUDY    77  73  88 SE10      29.64S
SUGAR LAND     CLOUDY    76  73  91 S10       29.62R
*HOUSTON EXEC  CLOUDY    73  72  94 S8        29.64R FOG
*CLEVELAND MUN CLOUDY    73  70  93 SE3       29.64S FOG
*WHARTON       MOCLDY    74  70  88 SE8       29.62S
*COLUMBUS      CLOUDY    73  70  91 S8        29.62S
*EAGLE LAKE    CLOUDY    75  74  96 S7        29.62R
$$

TXZ214>216-236>238-281200-
THE UPPER TEXAS COAST

CITY           SKY/WX    TMP DP  RH WIND       PRES   REMARKS
*ORANGE        CLOUDY    76  74  93 S10G16    29.70R FOG
PORT ARTHUR    CLOUDY    77  73  87 S13       29.67S
GALVESTON      CLOUDY    78  76  93 S13       29.66R FOG
ANGLETON       CLOUDY    77  74  90 S10       29.64R
*BAY CITY      PTCLDY    75  74  95 SE6       29.63R FOG
PALACIOS       PTCLDY    75  72  90 SE10      29.61S
$$

TXZ229>234-239>247-281200-
TEXAS COASTAL BEND AND RIO GRANDE PLAINS

CITY           SKY/WX    TMP DP  RH WIND       PRES   REMARKS
VICTORIA       MOCLDY    73  70  90 SE10      29.60R FOG
*BEEVILLE      CLOUDY   N/A N/A N/A SE6       29.59R
ROCKPORT       CLOUDY    77  72  84 SE10G18   29.59R
*PORT ARANSAS  MOCLDY    75  72  91 S9        29.58S FOG
*PORT LAVACA   PTCLDY    73  73 100 CALM      29.61R FOG
*INGLESIDE     CLOUDY    78  72  84 S13G20    29.59R
CORPUS CHRISTI CLOUDY    75  73  93 SE13      29.57S
CORPUS NAS     CLOUDY    77  74  90 S16       29.57S
*ROBSTOWN      CLOUDY    76  76  98 SE9       29.58R
ALICE          CLOUDY    74  70  87 SE13      29.56S
KINGSVILLE NAS CLOUDY    74  73  97 SE14      29.56S
COTULLA        CLEAR     72  68  87 SE13      29.54F
*FAITH RANCH   CLOUDY    73  70  88 S7G13     29.56R
LAREDO         MOCLDY    72  70  93 E7        29.55S
$$

TXZ248>255-281200-
DEEP SOUTH TEXAS

CITY           SKY/WX    TMP DP  RH WIND       PRES   REMARKS
BROWNSVILLE    PTCLDY    77  73  87 S12       29.59R
PORT ISABEL    CLOUDY    76  74  93 S9        29.58S FOG
*SOUTH PADRE   NOT AVBL
HARLINGEN      PTCLDY    74  73  97 S12       29.56S FOG
*HEBBRONVILLE  CLOUDY    71  69  93 S12       29.56S FOG
MCALLEN        PTCLDY    76  71  85 SE12      29.56R
*WESLACO       MOCLDY    74  71  91 S9        29.55F
FALFURRIAS     MOCLDY    73  71  92 SE8       29.55S
EDINBURG       PTCLDY    75  71  88 SE8       29.56S FOG
*ZAPATA        CLOUDY    74  69  83 SE14G20   29.52F
$$

TXZ213>215-236>238-242>244-246-247-251-254-255-281200-
CMAN STATIONS

STATION/POSITION TIME  TEMP    WIND        PRES    WAVE
                       AIR SEA DIR/SP/G            HT/PER
                 (UTC) (F)     (DEG/KT/KT) (MB)    (FT/S)
SABINE PASS      1030   76 76  160/ 11/ 15 1006.6
SEA RIM ST PARK  1000   76     160/ 10/ 12 1005.2
NORTH JETTY/GLS  1030      75  150/ 12/ 15 1003.8
EAGLE POINT      1030   76 74  170/ 12/ 14 1003.6
MORGANS POINT    1030   76 75  150/  6/  9 1003.5
MISSION/ARANSAS  1000   76                 1002.0
PORT O`CONNOR    1030   76     140/ 12/ 14 1002.2
PORT ARANSAS     1000   76 76  150/ 15/ 16 1001.7
MALAQUITE BEACH  1030   77 78  150/ 19/ 21 1001.9
BAFFIN BAY       1030   76 77  120/ 12/ 15 1001.6
PORT ISABEL      1030   77 80  160/  9/ 11 1001.7
$$




USA.gov is the U.S. government's official web portal to all federal, state and local government web resources and services.